Hourly Data Report for April 12, 2016

All times are specified in Local Standard Time (LST). Add 1 hour to adjust for Daylight Saving Time where and when it is observed.

EMERSON AUTO
MANITOBA

49°00'00.000" N
97°14'15.000" W
242.00 m
5020881
71560
WEX

Download Data

Hourly Data (April 2016)
Hourly Data Report for April 12, 2016
Temp Definition
°C
Dew Point Temp Definition
°C
Rel Hum Definition
%
Wind Dir Definition
10's deg

Wind Spd Definition
km/h
Visibility Definition
km
Stn Press Definition
kPa
Hmdx Definition


Wind Chill Definition


Weather Definition


TIME
00:00 -7.5 -10.8 77 15 5   99.52   -10 LegendNANA
01:00 -7.0 -11.8 69 16 8   99.48   -11 LegendNANA
02:00 -8.0 -11.1 79 17 6   99.45   -11 LegendNANA
03:00 -6.6 -10.7 72 16 10   99.46   -11 LegendNANA
04:00 -8.0 -11.0 79 14 8   99.43   -12 LegendNANA
05:00 -7.8 -11.2 77 16 11   99.41   -13 LegendNANA
06:00 -6.5 -10.9 71 16 12   99.44   -12 LegendNANA
07:00 -4.3 -10.2 64 17 20   99.42   -11 LegendNANA
08:00 -2.1 -9.2 58 17 22   99.35   -8 LegendNANA
09:00 0.2 -9.4 49 18 24   99.31     LegendNANA
10:00 2.6 -8.8 43 18 28   99.25     LegendNANA
11:00 4.4 -10.1 34 17 29   99.19     LegendNANA
12:00 6.2 -9.7 31 17 28   99.09     LegendNANA
13:00 7.1 -10.2 28 18 27   99.03     LegendNANA
14:00 8.0 -9.1 29 18 25   98.99     LegendNANA
15:00 9.1 -9.6 26 18 23   98.94     LegendNANA
16:00 8.9 -10.4 24 18 22   98.92     LegendNANA
17:00 9.4 -9.3 26 18 21   98.89     LegendNANA
18:00 8.9 -9.8 25 18 16   98.94     LegendNANA
19:00 7.0 -8.5 32 19 13   98.91     LegendNANA
20:00 4.6 -8.1 39 17 12   98.94     LegendNANA
21:00 3.6 -7.1 45 16 10   98.99     LegendNANA
22:00 0.1 -8.1 54 12 10   99.04     LegendNANA
23:00 -0.5 -7.3 60 14 9   99.04   -4 LegendNANA

Notes on Data Quality.

Legend

  • E = Estimated
  • M = Missing
  • NA = Not Available
  • ‡ = Partner data that is not subject to review by the National Climate Archives
Date modified: